Regional Weather Roundup
Issued by NWS

Home | Current Version | Previous Version | Graphics & Text | Print | Product List | Glossary On
Versions: 1 2 3 4 5 6 7 8 9 10 11 12 13 14 15 16 17 18 19 20 21 22 23 24 25 26 27
000
ASUS45 KCYS 252110
RWRWY

WYOMING REGIONAL WEATHER ROUNDUP
NATIONAL WEATHER SERVICE CHEYENNE WY
300 PM MDT MON JUL 25 2016

NOTE:  "FAIR" INDICATES FEW OR NO CLOUDS BELOW 12,000 FEET
WITH NO SIGNIFICANT WEATHER AND/OR OBSTRUCTIONS TO VISIBILITY.

WYZ001-252200-
YELLOWSTONE NATIONAL PARK

CITY           SKY/WX    TMP DP  RH WIND       PRES   REMARKS
LK YELLOWSTONE   N/A     79  19  10 SW9G20    30.35S
W YELLOWSTONE  NOT AVBL

$$
WYZ002>013-054>058-071-098>099-252200-
NORTHERN WYOMING

CITY           SKY/WX    TMP DP  RH WIND       PRES   REMARKS
JACKSON        SUNNY     84  27  12 S14       30.22F
CODY           FAIR      90  37  15 NE13      30.09F
GREYBULL       FAIR      96  29   9 E5        29.99F HX  90
WORLAND        FAIR      96  23   7 VRB5      30.02F HX  90
SHERIDAN       FAIR      99  35  10 NE6G18    30.01F HX  93
BUFFALO        FAIR      94  32  11 VRB6      30.09F
GILLETTE       FAIR      94  33  11 SE9       30.05F
HULETT         FAIR      93  36  13 W8        30.06F
NEWCASTLE      FAIR      90  41  18 S14G23    30.07F

$$
WYZ014>020-022>026-101>103-252200-
CENTRAL WYOMING

CITY           SKY/WX    TMP DP  RH WIND       PRES   REMARKS
BIG PINEY      FAIR      88  26  10 S10       30.27F
PINEDALE       FAIR      82  27  13 W3        30.29F
DUBOIS         FAIR      86  21   9 NW14      30.25F
LANDER         FAIR      91  24   9 CALM      30.14F
RIVERTON         N/A     93 N/A N/A MISG      30.12F
CASPER         FAIR      94  28   9 VRB3      30.10F
DOUGLAS          N/A    N/A N/A N/A MISG      30.10F

$$
WYZ021-027>030-104>119-252200-
SOUTHERN WYOMING

CITY           SKY/WX    TMP DP  RH WIND       PRES   REMARKS
EVANSTON       FAIR      89  30  12 W10G26    30.27F
KEMMERER         N/A    N/A N/A N/A W5G20     30.28F
FORT BRIDGER   FAIR      91  27  10 W15G22    30.29S
ROCK SPRINGS   FAIR      89  20   8 S9        30.24F
DIXON          FAIR      91  27  10 W12G17    30.27F
RAWLINS        FAIR      91  13   5 W17G28    30.26F
SARATOGA       FAIR      88  23   9 W14G22    30.29S
LARAMIE        FAIR      86  17   8 N16G24    30.28F
CHEYENNE       FAIR      86  49  27 SE14G22   30.21F
TORRINGTON     FAIR      93  50  23 SE14      30.05F HX  90
PINE BLUFFS    FAIR      86  54  32 SE15      30.17F

$$




USA.gov is the U.S. government's official web portal to all federal, state and local government web resources and services.